When you browse on this site, cookies collect data to enhance your experience and personalize the content and advertising you see.
Visit our Privacy Policy to learn more. By continuing to use the site, you agree to this use of cookies and data.
  • In United Kingdom
  • List of Countries
  • For 7 days
  • Water Temperature
  • Weather Map
  • Weather Widgets
  • user-avatar
    Login

    Hourly Weather Manika

    Today, 20 October, Sunday

    Time Temperature Precipitation Wind Pressure Humidity
    00:00 +20°C° 0 mm 2 mps 678 mmHg 78%
    01:00 +19°C° 0 mm 2 mps 678 mmHg 84%
    02:00 +19°C° 0 mm 1 mps 678 mmHg 90%
    03:00 +19°C° 0 mm 1 mps 678 mmHg 89%
    04:00 +19°C° 0 mm 1 mps 678 mmHg 89%
    05:00 +19°C° 0 mm 1 mps 678 mmHg 89%
    06:00 +20°C° 0 mm 0 mps 679 mmHg 72%
    07:00 +24°C° 0 mm 0 mps 680 mmHg 55%
    08:00 +29°C° 0 mm 0 mps 681 mmHg 38%
    09:00 +31°C° 0 mm 0 mps 681 mmHg 31%
    10:00 +35°C° 0 mm 1 mps 681 mmHg 24%
    11:00 +37°C° 0 mm 1 mps 681 mmHg 17%
    12:00 +38°C° 0 mm 2 mps 680 mmHg 16%
    13:00 +38°C° 0 mm 2 mps 679 mmHg 14%
    14:00 +38°C° 0 mm 2 mps 678 mmHg 13%
    15:00 +37°C° 0 mm 3 mps 678 mmHg 14%
    16:00 +36°C° 0 mm 3 mps 678 mmHg 15%
    17:00 +35°C° 0 mm 3 mps 677 mmHg 16%
    18:00 +33°C° 0 mm 3 mps 677 mmHg 25%
    19:00 +29°C° 0 mm 3 mps 678 mmHg 35%
    20:00 +27°C° 0 mm 4 mps 678 mmHg 44%
    21:00 +25°C° 0 mm 3 mps 678 mmHg 56%
    22:00 +24°C° 0 mm 3 mps 678 mmHg 68%
    23:00 +23°C° 0 mm 2 mps 678 mmHg 80%

    Tomorrow, 21 October, Monday

    Time Temperature Precipitation Wind Pressure Humidity
    00:00 +21°C° 0 mm 2 mps 678 mmHg 82%
    01:00 +22°C° 0 mm 1 mps 677 mmHg 84%
    02:00 +21°C° 0 mm 1 mps 676 mmHg 86%
    03:00 +21°C° 0 mm 1 mps 676 mmHg 83%
    04:00 +21°C° 0 mm 1 mps 676 mmHg 80%
    05:00 +21°C° 0 mm 1 mps 676 mmHg 76%
    06:00 +24°C° 0 mm 1 mps 677 mmHg 61%
    07:00 +28°C° 0 mm 1 mps 678 mmHg 47%
    08:00 +32°C° 0 mm 1 mps 679 mmHg 32%
    09:00 +34°C° 0 mm 1 mps 679 mmHg 25%
    10:00 +37°C° 0 mm 1 mps 679 mmHg 19%
    11:00 +40°C° 0 mm 2 mps 679 mmHg 13%
    12:00 +40°C° 0 mm 2 mps 678 mmHg 13%
    13:00 +40°C° 0 mm 3 mps 677 mmHg 13%
    14:00 +41°C° 0 mm 4 mps 677 mmHg 13%
    15:00 +40°C° 0 mm 4 mps 676 mmHg 14%
    16:00 +38°C° 0 mm 4 mps 676 mmHg 14%
    17:00 +37°C° 0 mm 4 mps 676 mmHg 15%
    18:00 +35°C° 0 mm 4 mps 676 mmHg 19%
    19:00 +33°C° 0 mm 4 mps 676 mmHg 24%
    20:00 +30°C° 0 mm 3 mps 677 mmHg 28%
    21:00 +28°C° 0 mm 3 mps 677 mmHg 34%
    22:00 +27°C° 0 mm 3 mps 677 mmHg 41%
    23:00 +25°C° 0 mm 2 mps 677 mmHg 47%

    Day after tomorrow, 22 October, Tuesday

    Time Temperature Precipitation Wind Pressure Humidity
    00:00 +25°C° 0 mm 2 mps 676 mmHg 53%
    01:00 +24°C° 0 mm 2 mps 675 mmHg 59%
    02:00 +23°C° 0 mm 2 mps 675 mmHg 66%
    03:00 +23°C° 0 mm 1 mps 675 mmHg 65%
    04:00 +22°C° 0 mm 1 mps 675 mmHg 64%
    05:00 +22°C° 0 mm 1 mps 675 mmHg 63%
    06:00 +25°C° 0 mm 2 mps 677 mmHg 53%
    07:00 +28°C° 0 mm 2 mps 678 mmHg 44%
    08:00 +31°C° 0 mm 2 mps 679 mmHg 35%
    09:00 +34°C° 0 mm 3 mps 679 mmHg 30%
    10:00 +36°C° 0 mm 4 mps 679 mmHg 26%
    11:00 +38°C° 0 mm 4 mps 680 mmHg 22%
    12:00 +39°C° 0 mm 5 mps 679 mmHg 22%
    13:00 +39°C° 0 mm 5 mps 678 mmHg 22%
    14:00 +39°C° 0 mm 6 mps 678 mmHg 23%
    15:00 +36°C° 0 mm 6 mps 677 mmHg 28%
    16:00 +35°C° 0 mm 6 mps 677 mmHg 33%
    17:00 +33°C° 0 mm 6 mps 677 mmHg 38%
    18:00 +30°C° 0 mm 6 mps 677 mmHg 50%
    19:00 +28°C° 0 mm 5 mps 678 mmHg 62%
    20:00 +25°C° 0 mm 5 mps 678 mmHg 74%
    21:00 +23°C° 0 mm 4 mps 678 mmHg 77%
    22:00 +22°C° 0 mm 4 mps 678 mmHg 80%
    23:00 +21°C° 0 mm 3 mps 677 mmHg 84%

    23 October, Wednesday

    Time Temperature Precipitation Wind Pressure Humidity
    00:00 +21°C° 0 mm 3 mps 677 mmHg 86%
    01:00 +20°C° 0 mm 3 mps 677 mmHg 88%
    02:00 +20°C° 0 mm 2 mps 676 mmHg 90%
    03:00 +20°C° 0 mm 2 mps 676 mmHg 90%
    04:00 +19°C° 0 mm 2 mps 676 mmHg 89%
    05:00 +19°C° 0 mm 2 mps 677 mmHg 89%
    06:00 +22°C° 0 mm 3 mps 677 mmHg 75%
    07:00 +25°C° 0 mm 3 mps 678 mmHg 62%
    08:00 +28°C° 0 mm 3 mps 679 mmHg 48%
    09:00 +31°C° 0 mm 3 mps 679 mmHg 38%
    10:00 +35°C° 0 mm 4 mps 679 mmHg 28%
    11:00 +38°C° 0 mm 4 mps 679 mmHg 18%
    12:00 +40°C° 0 mm 4 mps 678 mmHg 17%
    13:00 +40°C° 0 mm 4 mps 678 mmHg 15%
    14:00 +41°C° 0 mm 4 mps 677 mmHg 14%
    15:00 +40°C° 0 mm 5 mps 676 mmHg 16%
    16:00 +39°C° 0 mm 5 mps 676 mmHg 18%
    17:00 +37°C° 0 mm 5 mps 676 mmHg 20%
    18:00 +34°C° 0 mm 4 mps 676 mmHg 25%
    19:00 +32°C° 0 mm 4 mps 676 mmHg 30%
    20:00 +29°C° 0 mm 3 mps 676 mmHg 35%
    21:00 +28°C° 0 mm 3 mps 676 mmHg 39%
    22:00 +27°C° 0 mm 3 mps 676 mmHg 43%
    23:00 +25°C° 0 mm 2 mps 677 mmHg 47%

    24 October, Thursday

    Time Temperature Precipitation Wind Pressure Humidity
    00:00 +24°C° 0 mm 2 mps 676 mmHg 54%
    01:00 +23°C° 0 mm 2 mps 676 mmHg 61%
    02:00 +21°C° 0 mm 2 mps 675 mmHg 67%
    03:00 +21°C° 0 mm 2 mps 676 mmHg 67%
    04:00 +21°C° 0 mm 2 mps 676 mmHg 66%
    05:00 +21°C° 0 mm 2 mps 676 mmHg 66%
    06:00 +25°C° 0 mm 2 mps 677 mmHg 54%
    07:00 +29°C° 0 mm 2 mps 678 mmHg 42%
    08:00 +34°C° 0 mm 2 mps 679 mmHg 31%
    09:00 +36°C° 0 mm 2 mps 679 mmHg 25%
    10:00 +39°C° 0 mm 2 mps 680 mmHg 19%
    11:00 +41°C° 0 mm 2 mps 680 mmHg 14%
    12:00 +42°C° 0 mm 3 mps 679 mmHg 13%
    13:00 +42°C° 0 mm 4 mps 678 mmHg 12%
    14:00 +42°C° 0 mm 5 mps 677 mmHg 12%
    15:00 +41°C° 0 mm 5 mps 677 mmHg 13%
    16:00 +40°C° 0 mm 5 mps 676 mmHg 15%
    17:00 +39°C° 0 mm 5 mps 676 mmHg 16%
    18:00 +36°C° 0 mm 4 mps 676 mmHg 19%
    19:00 +33°C° 0 mm 3 mps 676 mmHg 23%
    20:00 +30°C° 0 mm 3 mps 677 mmHg 26%
    21:00 +29°C° 0 mm 2 mps 677 mmHg 29%
    22:00 +28°C° 0 mm 2 mps 677 mmHg 32%
    23:00 +27°C° 0 mm 2 mps 677 mmHg 35%

    25 October, Friday

    Time Temperature Precipitation Wind Pressure Humidity
    00:00 +26°C° 0 mm 2 mps 676 mmHg 40%
    01:00 +25°C° 0 mm 2 mps 676 mmHg 45%
    02:00 +24°C° 0 mm 2 mps 676 mmHg 50%
    03:00 +24°C° 0 mm 2 mps 676 mmHg 51%
    04:00 +23°C° 0 mm 2 mps 676 mmHg 52%
    05:00 +23°C° 0 mm 2 mps 676 mmHg 53%
    06:00 +27°C° 0 mm 3 mps 677 mmHg 45%
    07:00 +30°C° 0 mm 3 mps 678 mmHg 37%
    08:00 +34°C° 0 mm 4 mps 679 mmHg 28%
    09:00 +36°C° 0 mm 4 mps 679 mmHg 24%
    10:00 +38°C° 0 mm 3 mps 679 mmHg 19%
    11:00 +40°C° 0 mm 3 mps 679 mmHg 15%
    12:00 +42°C° 0 mm 3 mps 678 mmHg 14%
    13:00 +42°C° 0 mm 3 mps 678 mmHg 13%
    14:00 +43°C° 0 mm 3 mps 677 mmHg 12%
    15:00 +42°C° 0 mm 4 mps 677 mmHg 13%
    16:00 +41°C° 0 mm 4 mps 676 mmHg 14%
    17:00 +40°C° 0 mm 5 mps 676 mmHg 16%
    18:00 +36°C° 0 mm 4 mps 676 mmHg 20%
    19:00 +34°C° 0 mm 3 mps 676 mmHg 23%
    20:00 +30°C° 0 mm 3 mps 676 mmHg 27%
    21:00 +30°C° 0 mm 3 mps 676 mmHg 28%
    22:00 +29°C° 0 mm 3 mps 677 mmHg 29%
    23:00 +29°C° 0 mm 3 mps 677 mmHg 30%
    Show more